Weather in Ustrem

Russia / Khanty-Mansi Autonomous Okrug — Yugra     64°15′55″N   65°29′46″E
temp.,
°C
wind,
m/s
gust,
m/s
humid.,
%
clouds,
%
prec.,
mm/h
press.,
hPa
HPBL,
m
24 october, sun
sun2423:00+1wsw5991100 0.1 988253
02:00−1wnw61072100 2.3 991220
05:00−2w712735 2.3 994252
08:00−2w611740 0.0 997190
11:00−1w611730 0.0 1000384
14:000wnw59684 0.0 1003267
17:00−3wsw44825 0.0 100536
20:00−4w338741 0.0 100627
25 october, mon
mon2523:00−5wsw1189100 0.0 100510
02:00−5sw2290100 0.0 100515
05:00−5sw2291100 0.0 100523
08:00−5sw2391100 0.0 100629
11:00−3sw3485100 0.0 1006130
14:00−2ssw2384100 0.0 100794
17:00−3ssw2290100 0.0 100724
20:00−3sw1193100 0.0 100714
26 october, tue
tue2623:00−4nnw1196100 0.0 100620
02:00−4n2297100 0.1 100648
05:00−4nnw339798 0.2 100656
08:00−5nnw3592100 0.0 100689
11:00−4nnw58815 0.0 1007339
14:00−3nw47725 0.0 1007231
17:00−4w467524 0.0 100774
20:00−4w5972100 0.0 1007183
27 october, wed
wed2723:00−5w61073100 0.0 1007183
02:00−4w6117194 0.0 1007326
05:00−5wnw7117212 0.0 1008246
08:00−5wnw610735 0.0 1010178
11:00−4wnw59690 0.0 1012403
14:00−3wnw46685 0.0 1013135
17:00−6wsw2281100 0.0 101410
20:00−6ssw2382100 0.0 101327
28 october, thu
thu2823:00−5sse3582100 0.0 1012106
02:00−5se5882100 0.0 1009200
05:00−4se71279100 0.0 1006468
08:00−5se81395100 2.0 1001581
11:00−4se61096100 4.4 997445
14:00−3ese3597100 1.9 994240
17:00−3n4697100 3.2 994240
20:00−6nw6109481 0.2 995194